Location: Unspecified
(0.0000°N, 0.0000°E)
Time: 11:56:59
(UTC+00:00)

Vela 4B - Visible Passes

Search period start: 06 December 2021 00:00
Search period end: 16 December 2021 00:00
Orbit: 57528 x 166924 km, 27.9° (Epoch: 28 November)

Date Brightness Start Highest point End Pass type
(mag) Time Alt. Az. Time Alt. Az. Time Alt. Az.
06 Dec ? 08:02:15 10° ESE 13:43:06 62° S 19:32:00 10° WSW visible
07 Dec ? 12:39:26 10° ESE 20:21:34 85° SSW 07:55:22 10° WNW daylight
09 Dec ? 03:21:57 10° E 09:11:31 85° S 14:57:51 10° W visible
10 Dec ? 05:57:28 10° ESE 11:32:24 69° S 17:12:36 10° WSW visible
11 Dec ? 08:35:58 10° ESE 14:25:59 61° S 20:25:47 10° WSW visible
12 Dec ? 16:32:02 10° E 05:10:40 65° N 11:54:27 10° WNW daylight
14 Dec ? 03:55:31 10° E 09:36:45 79° S 15:19:17 10° WSW visible
